MEASAT-3B

Last updated on Wed Sep 09 2026 00:03:00 GMT+0000 (Coordinated Universal Time)

1 40147U 14054B 26251.59207071 -.00000263 00000+0 00000+0 0 9997 2 40147 0.0387 13.8859 0001121 150.5283 127.8898 1.00271851 43756
UTC large
Height (km)
Speed (km/s)
/
Latitude / Longitude
Inclination (degrees)
Orbital Period (minutes)
Azimuth
Elevation
Range (km)
Doppler Factor

Next 0 passes for location: London (51.5072 / 0.1276)

No passes found over London.
MEASAT-3B